USA 15

Satellite information

Favourite Embed

Satellite Type and Status

PAYLOADIN ORBIT

Key statistics

Satellite USA 15 at a glance.

Uptime

14453

Days in orbit

Revolutions

≈ 14.1

Per day

Orbit

LEO

Low Earth Orbit

Inclination

63.3

Latest

Satellite identification and parameters

Extended collection of information and parameters for USA 15.

Object identification

Identified? True

Debris? False

Object name: USA 15

International designator: 1986-014A

Object number (NORAD): 16591

Object ID (CCSDS): 16591

Country: UNITED STATES OF AMERICA (US)

Current information (Y/N): Y

RCS size: LARGE

Orbital parameters

Period: 102.444 minutes

Inclination: 63.2927 deg

SMA: 7252.455 km

Apoapsis: 1391.067 km

Periapsis: 357.573 km

RAAN: 8.4041 deg

Eccentricy: 0.07125133

Argument of periapsis: 107.6003 deg

Mean anomaly: 260.4134 deg

Mean motion: 14.05643527 rev/day

Mean motion (dot): 0.00034111 rev/day2

B* drag term: 0.0016950785 1/REarth

Two-line elements (TLE)

Creation date: Sept. 3, 2025, 10:15 a.m.

Reference frame: TEME

Reference center: EARTH

Epoch: Sept. 3, 2025, 12:51 a.m. UTC

TLE line 0: 0 USA 15

TLE line 1: 1 16591U 86014A 25246.03590382 .00034111 00000-0 16951-2 0 9994

TLE line 2: 2 16591 63.2927 8.4041 0712513 107.6003 260.4134 14.05643527 67422

Live tracking on map

Real-time ground track for satellite USA 15.

In-orbit conjunctions

There are no conjunctions computed for USA 15, at the moment. Check back to stay up to date, as we update our databases every day.

Go to all conjunctions

Associated space launch

The Parcae satellites were passive ELINT satellites. MSD satellites were dispensers of triplets of ocean surveillance satellites.

USA 15 was lifted into orbit during the mission ‘Atlas H | Parcae 8A,B,C & MSD 8’, on board a Atlas H space rocket.

The launch took place on Feb. 9, 1986, 10:06 a.m. from Space Launch Complex 3E.

For more information about the launch, click the button.

Launch to space Atlas H | Parcae 8A,B,C & MSD 8
Atlas H | Parcae 8A,B,C & MSD 8

Agency: N/A

Status: Launch Successful

Launch date: Feb. 9, 1986, 10:06 a.m. UTC

Rocket: Atlas H

Launch pad: Space Launch Complex 3E

Location: Vandenberg SFB, CA, USA

...

Latest news about this satellite

There are no fresh news available about this satellite. Check back as we update our databases every day.


Newsletter sign-up

Weekly statistics, charts and insights to help you stay on top of the space industry.